Weather History for Birmingham, United Kingdom

Change the Weather History Date:

Monday, January 14, 2013

  Actual Average Record
Temperature  
Mean Temperature 34 °F -  
Max Temperature 39 °F 43 °F 51 °F (2011)
Min Temperature 30 °F 33 °F 21 °F (2012)
Degree Days  
Heating Degree Days 30    
Moisture  
Dew Point 32 °F    
Average Humidity 96    
Maximum Humidity 100    
Minimum Humidity 87    
Precipitation  
Precipitation 0.00 in 0.07 in - ()
Sea Level Pressure  
Sea Level Pressure 29.82 in    
Wind  
Wind Speed 6 mph ()    
Max Wind Speed 14 mph    
Max Gust Speed -    
Visibility 3.7 miles    
Events Rain , Snow    
Averages and records for this station are not official NWS values.
T = Trace of Precipitation, MM = Missing Value Source: Averaged Metar Reports

Daily Weather History Graph

Daily Weather History Graph

Search for Another Location

Airport:

Trip Planner

Search our weather history database for the weather conditions in past years. The results will help you decide how hot, cold, wet, or windy it might be!

Date:

Astronomy

Jan. 14, 2013 Rise Set
Actual Time 8:10 AM GMT 4:21 PM GMT
Civil Twilight 7:31 AM GMT 5:01 PM GMT
Nautical Twilight 6:48 AM GMT 5:44 PM GMT
Astronomical Twilight 6:07 AM GMT 6:25 PM GMT
Moon 9:06 AM GMT (1/14) 8:24 PM GMT (1/14)
Length of Visible Light 9h 30m
Length of Day
8h 10m
Waxing Crescent, 10% of the Moon is Illuminated
Jan 14
Waxing Crescent
Jan 18
First Quarter
Jan 27
Full
Feb 3
Last Quarter
Feb 10
New

Hourly Weather History & Observations

Time (GMT) Temp. Windchill Dew Point Humidity Pressure Visibility Wind Dir Wind Speed Gust Speed Precip Events Conditions
12:20 AM 32.0 °F 27.5 °F 32.0 °F 100% 30.06 in - South 4.6 mph - N/A   Overcast
12:50 AM 32.0 °F 27.5 °F 32.0 °F 100% 30.06 in 1.8 mi South 4.6 mph - N/A Rain , Snow Light Rain
1:20 AM 32.0 °F 26.4 °F 30.2 °F 93% 30.06 in 1.5 mi SSW 5.8 mph - N/A Rain , Snow Light Rain
1:50 AM 32.0 °F 26.4 °F 30.2 °F 93% 30.04 in 1.2 mi SSW 5.8 mph - N/A Snow Light Snow
2:20 AM 30.2 °F 24.3 °F 30.2 °F 100% 30.04 in 0.7 mi South 5.8 mph - N/A Snow Light Snow
2:50 AM 30.2 °F 22.6 °F 30.2 °F 100% 30.04 in 1.4 mi South 8.1 mph - N/A Rain , Snow Light Freezing Rain
3:20 AM 30.2 °F 23.4 °F 30.2 °F 100% 30.01 in 1.1 mi South 6.9 mph - N/A Snow Light Snow
3:50 AM 30.2 °F 24.3 °F 30.2 °F 100% 30.01 in 3.1 mi South 5.8 mph - N/A   Overcast
4:20 AM 30.2 °F 25.4 °F 30.2 °F 100% 29.98 in 1.9 mi South 4.6 mph - N/A Rain , Snow Light Freezing Rain
4:50 AM 30.2 °F 25.4 °F 30.2 °F 100% 29.98 in 1.6 mi South 4.6 mph - N/A Snow Light Snow
5:20 AM 30.2 °F 25.4 °F 30.2 °F 100% 29.95 in - SSW 4.6 mph - N/A Rain , Snow Light Freezing Rain
5:50 AM 32.0 °F 28.7 °F 32.0 °F 100% 29.95 in 1.9 mi Variable 3.5 mph - N/A   Overcast
6:20 AM 32.0 °F 28.7 °F 32.0 °F 100% 29.95 in 1.9 mi South 3.5 mph - N/A   Overcast
6:50 AM 32.0 °F 27.5 °F 32.0 °F 100% 29.92 in 1.9 mi South 4.6 mph - N/A   Overcast
7:20 AM 32.0 °F 27.5 °F 32.0 °F 100% 29.92 in 1.6 mi South 4.6 mph - N/A   Mostly Cloudy
7:50 AM 32.0 °F 27.5 °F 32.0 °F 100% 29.89 in 1.1 mi South 4.6 mph - N/A   Mostly Cloudy
8:20 AM 32.0 °F 27.5 °F 32.0 °F 100% 29.89 in 0.7 mi South 4.6 mph - N/A   Overcast
8:50 AM 32.0 °F 26.4 °F 32.0 °F 100% 29.89 in 0.7 mi SSW 5.8 mph - N/A   Light Drizzle
9:20 AM 32.0 °F 28.7 °F 32.0 °F 100% 29.86 in 1.1 mi Variable 3.5 mph - N/A   Drizzle
9:50 AM 32.0 °F 27.5 °F 32.0 °F 100% 29.86 in 1.3 mi South 4.6 mph - N/A Rain , Snow Light Rain
10:20 AM 32.0 °F 27.5 °F 32.0 °F 100% 29.83 in 1.2 mi South 4.6 mph - N/A Snow Light Snow
10:50 AM 32.0 °F 28.7 °F 32.0 °F 100% 29.83 in 1.2 mi Variable 3.5 mph - N/A Snow Light Snow
11:20 AM 32.0 °F 27.5 °F 32.0 °F 100% 29.80 in 1.6 mi South 4.6 mph - N/A Rain , Snow Light Rain
11:50 AM 33.8 °F 29.6 °F 33.8 °F 100% 29.77 in 1.9 mi South 4.6 mph - N/A Rain Light Rain
12:20 PM 33.8 °F 29.6 °F 33.8 °F 100% 29.77 in 2.8 mi SW 4.6 mph - N/A Rain Light Rain
12:50 PM 35.6 °F 32.8 °F 33.8 °F 93% 29.74 in 5.0 mi Variable 3.5 mph - N/A   Mostly Cloudy
1:20 PM 35.6 °F 31.7 °F 35.6 °F 100% 29.71 in 6.2 mi West 4.6 mph - N/A   Scattered Clouds
1:50 PM 37.4 °F 30.3 °F 35.6 °F 93% 29.71 in 6.2 mi NW 10.4 mph - N/A   Partly Cloudy
2:20 PM 39.2 °F 33.0 °F 35.6 °F 87% 29.71 in 6.2 mi NW 9.2 mph - N/A   Partly Cloudy
2:50 PM 39.2 °F 33.6 °F 35.6 °F 87% 29.71 in 6.2 mi NW 8.1 mph - N/A   Partly Cloudy
3:20 PM 39.2 °F 32.0 °F 35.6 °F 87% 29.71 in 6.2 mi WNW 11.5 mph - N/A Rain Light Rain Showers
3:50 PM 37.4 °F 29.8 °F 35.6 °F 93% 29.68 in 6.2 mi NW 11.5 mph - N/A Rain Light Rain Showers
4:20 PM 37.4 °F 30.3 °F 33.8 °F 87% 29.68 in 5.6 mi WNW 10.4 mph - N/A   Mostly Cloudy
4:50 PM 35.6 °F 27.5 °F 33.8 °F 93% 29.68 in 6.2 mi WNW 11.5 mph - N/A   Scattered Clouds
5:20 PM 35.6 °F 29.2 °F 33.8 °F 93% 29.68 in 6.2 mi WNW 8.1 mph - N/A   Scattered Clouds
5:50 PM 35.6 °F 26.6 °F 33.8 °F 93% 29.68 in 6.2 mi WNW 13.8 mph - N/A   Partly Cloudy
6:20 PM 35.6 °F 27.5 °F 33.8 °F 93% 29.68 in 6.2 mi WNW 11.5 mph - N/A   Scattered Clouds
6:50 PM 35.6 °F 27.5 °F 33.8 °F 93% 29.68 in 6.2 mi NW 11.5 mph - N/A Rain Light Rain
7:20 PM 33.8 °F 25.3 °F 33.8 °F 100% 29.68 in 6.2 mi NW 11.5 mph - N/A   Scattered Clouds
7:50 PM 33.8 °F 26.4 °F 33.8 °F 100% 29.68 in 6.2 mi NW 9.2 mph - N/A   Scattered Clouds
8:20 PM 33.8 °F 25.8 °F 32.0 °F 93% 29.68 in 6.2 mi NW 10.4 mph - N/A   Scattered Clouds
8:50 PM 33.8 °F 25.3 °F 32.0 °F 93% 29.68 in 6.2 mi NW 11.5 mph - N/A   Scattered Clouds
9:20 PM 33.8 °F 26.4 °F 32.0 °F 93% 29.68 in 6.2 mi NW 9.2 mph - N/A   Scattered Clouds
9:50 PM 33.8 °F 27.0 °F 32.0 °F 93% 29.68 in 6.2 mi NW 8.1 mph - N/A   Partly Cloudy
10:20 PM 32.0 °F 24.8 °F 32.0 °F 100% 29.68 in - NW 8.1 mph - N/A   Clear
10:50 PM 32.0 °F 24.8 °F 30.2 °F 93% 29.68 in - NW 8.1 mph - N/A   Clear
11:20 PM 32.0 °F 24.2 °F 30.2 °F 93% 29.65 in - NW 9.2 mph - N/A   Clear
11:50 PM 32.0 °F 23.6 °F 30.2 °F 93% 29.68 in 6.2 mi NW 10.4 mph - N/A   Partly Cloudy